Location: Dannhausen
(51.8650°N, 10.1026°E)
Time: 13:53:21
(UTC+00:00)

Cosmos 1570 Rocket - Pass Details

Date: 09 April 2020
Orbit: 763 x 788 km, 74.1° (Epoch: 25 May)

Event Time Altitude Azimuth Distance (km) Brightness Sun altitude
Rises 20:45:04 0° 333° (NNW) 3,294 8.6 -21.5°
Reaches altitude 10° 20:47:29 10° 330° (NNW) 2,360 7.6 -21.7°
Maximum altitude 20:52:46 63° 251° (WSW) 879 4.3 -22.3°
Enters shadow 20:54:30 41° 189° (S) 1,130 4.5 -22.4°
